Date,TemperatureHighF,TemperatureAvgF,TemperatureLowF,DewpointHighF,DewpointAvgF,DewpointLowF,HumidityHigh,HumidityAvg,HumidityLow,PressureMaxIn,PressureMinIn,WindSpeedMaxMPH,WindSpeedAvgMPH,GustSpeedMaxMPH,PrecipitationSumIn
2013-3-1,67.5,62.9,58.1,53.2,47.1,-34.4,74,57,46,29.91,29.81,0,0,0,0.00
2013-3-2,68.2,58.9,53.4,43.5,37.0,29.6,59,45,29,29.95,29.86,0,0,0,0.00
2013-3-3,64.0,56.0,50.7,44.7,37.9,33.1,74,52,33,30.06,29.88,0,0,0,0.02
2013-3-4,70.9,55.4,43.0,38.2,31.5,23.5,66,44,19,30.13,30.03,0,0,0,0.02
2013-3-5,78.6,63.9,49.6,52.8,47.2,36.6,80,57,34,30.09,29.99,0,0,0,0.00
2013-3-6,80.1,66.1,53.1,62.0,45.9,17.9,85,53,19,30.02,29.86,0,0,0,0.00
2013-3-7,73.4,60.1,48.4,50.0,38.5,31.1,75,47,27,30.10,29.98,0,0,0,0.00
2013-3-8,77.5,64.3,52.7,51.1,44.5,31.5,82,54,19,30.11,30.01,0,0,0,0.00
2013-3-9,78.8,65.4,54.3,53.6,48.1,45.3,80,56,34,30.10,30.01,18,1,18,0.04
2013-3-10,76.6,68.3,63.5,51.4,48.8,46.1,60,50,36,30.07,29.98,13,1,13,0.04
2013-3-11,79.2,73.0,68.4,57.2,54.9,51.5,63,54,39,30.02,29.87,7,2,114,0.00
2013-3-12,85.6,75.5,68.2,63.1,60.3,-31.4,75,60,44,29.92,29.82,8,1,114,0.00
2013-3-13,78.3,67.6,58.1,61.8,48.1,33.1,80,53,24,30.04,29.89,14,1,14,0.00
2013-3-14,74.8,62.5,54.3,49.3,40.0,27.6,77,48,19,30.12,30.01,15,1,15,0.00
2013-3-15,75.2,63.4,52.9,49.3,43.2,39.4,67,50,28,30.17,30.06,11,1,11,0.00
2013-3-16,81.0,66.4,53.8,56.2,48.0,44.2,82,55,32,30.11,30.00,10,1,10,0.00
2013-3-17,81.9,69.4,58.1,63.3,52.9,47.4,80,58,36,30.06,29.94,12,1,12,0.00
2013-3-18,85.3,73.0,64.6,64.6,60.9,54.2,82,67,46,29.99,29.88,15,1,15,0.02
2013-3-19,84.0,74.5,69.3,68.4,64.0,59.2,88,72,45,29.93,29.72,30,0,30,0.04
2013-3-20,91.8,75.0,64.6,67.7,59.2,49.2,86,61,32,29.90,29.72,15,1,15,0.02
2013-3-21,78.3,68.7,61.0,59.0,46.8,26.0,82,51,19,29.86,29.74,8,1,12,0.00
2013-3-22,79.2,69.4,57.4,65.2,55.1,46.2,79,62,41,29.92,29.81,12,2,12,0.00
2013-3-23,92.1,80.4,71.1,74.4,65.8,60.4,88,64,36,29.90,29.71,12,1,12,0.00
2013-3-24,93.4,82.1,74.7,76.4,66.6,60.2,86,62,37,29.81,29.61,20,2,20,0.00
2013-3-25,81.0,75.5,65.7,69.5,55.5,37.7,82,54,27,29.91,29.66,15,1,15,0.06
2013-3-26,69.6,61.8,52.5,39.2,30.7,23.5,48,32,19,30.13,29.90,16,3,16,0.04
2013-3-27,72.0,58.3,46.8,40.2,34.0,28.1,58,42,22,30.17,30.08,13,1,13,0.00
2013-3-28,76.6,62.2,51.4,43.0,38.2,29.0,67,44,19,30.18,30.07,11,1,11,0.00
2013-3-29,76.6,65.6,55.0,48.1,43.2,37.4,62,46,29,30.20,30.11,10,1,15,0.00
2013-3-30,79.5,67.9,56.3,55.5,46.7,40.2,78,49,27,30.17,30.07,15,2,15,0.00
2013-3-31,84.7,72.2,59.9,61.2,55.8,49.5,79,58,38,30.10,29.96,14,2,14,0.00